Location: Belfast
(54.5830°N, 5.9330°W)
Time: 01:47:53
(UTC+01:00)

ISS - Pass Details

Date: 21 March 2017
Orbit: 399 x 409 km, 51.6° (Epoch: 30 March)

Event Time Altitude Azimuth Distance (km) Brightness Sun altitude
Exits shadow 05:09:01 15° 220° (SW) 1,224 -1.9 -11.4°
Maximum altitude 05:09:16 15° 215° (SW) 1,219 -1.9 -11.4°
Drops below altitude 10° 05:11:12 10° 179° (S) 1,473 -1.1 -11.1°
Sets 05:13:56 0° 154° (SSE) 2,331 0.2 -10.8°
